Location: Newark
(23.5328°S, 46.7919°W)
Time: 14:45:27
(UTC+00:00)

N. Korean satellite - Pass Details

Date: 12 March 2021
Orbit: 452 x 499 km, 97.2° (Epoch: 17 April)

Event Time Altitude Azimuth Distance (km) Brightness Sun altitude
Rises 07:55:57 0° 11° (N) 2,577 10.2 -17.1°
Reaches altitude 10° 07:58:01 10° 10° (N) 1,702 9.3 -16.7°
Maximum altitude 08:01:41 85° 283° (WNW) 510 6.5 -15.8°
Drops below altitude 10° 08:05:24 10° 192° (SSW) 1,718 9.3 -15.0°
Sets 08:07:30 0° 191° (S) 2,605 10.3 -14.5°
